Weather History for Tunica, MS

Change the Weather History Date:

Monday, November 4, 2013

  Actual Average (KMEM) Record (KMEM)
Temperature  
Mean Temperature 54 °F 58 °F  
Max Temperature 64 °F 68 °F 82 °F (1987)
Min Temperature 44 °F 48 °F 22 °F (1991)
Degree Days  
Heating Degree Days 11 8  
Month to date heating degree days 31  
Since 1 July heating degree days 162  
Cooling Degree Days 0 1  
Month to date cooling degree days 4  
Year to date cooling degree days 2247  
Growing Degree Days 4 (Base 50)    
Moisture  
Dew Point 45 °F    
Average Humidity 71    
Maximum Humidity 93    
Minimum Humidity 45    
Precipitation  
Precipitation 0.00 in 0.15 in 2.54 in (1875)
Month to date precipitation 0.60  
Year to date precipitation 43.05  
Snow  
Snow 0.00 in 0.00 in 0.20 in (1936)
Month to date snowfall 0.0  
Since 1 July snowfall 0.0  
Since 1 September snowfall 0.0  
Snow Depth -    
Sea Level Pressure  
Sea Level Pressure 30.24 in    
Wind  
Wind Speed 7 mph (SE)    
Max Wind Speed 22 mph    
Max Gust Speed 28 mph    
Visibility 10 miles    
Events      
T = Trace of Precipitation, MM = Missing Value Source: NWS Daily Summary

Daily Weather History Graph

Daily Weather History Graph

Search for Another Location

Airport:

Trip Planner

Search our weather history database for the weather conditions in past years. The results will help you decide how hot, cold, wet, or windy it might be!

Date:

Astronomy

Nov. 04, 2013 Rise Set
Actual Time 6:24 AM CST 5:04 PM CST
Civil Twilight 5:58 AM CST 5:30 PM CST
Nautical Twilight 5:28 AM CST 6:00 PM CST
Astronomical Twilight 4:59 AM CST 6:30 PM CST
Moon 7:33 AM CST (11/4) 6:12 PM CST (11/4)
Length of Visible Light 11h 32m
Length of Day
10h 39m
New Moon, 2% of the Moon is Illuminated
Nov 4
New Moon
Nov 9
First Quarter
Nov 17
Full
Nov 25
Last Quarter
Dec 2
New

Hourly Weather History & Observations

Time (CST) Temp. Windchill Dew Point Humidity Pressure Visibility Wind Dir Wind Speed Gust Speed Precip Events Conditions
12:15 AM 46.4 °F 42.4 °F 41.0 °F 81% 30.21 in 10.0 mi ESE 8.1 mph - N/A   Clear
12:35 AM 46.4 °F 42.4 °F 41.0 °F 81% 30.20 in 10.0 mi ESE 8.1 mph - N/A   Clear
12:55 AM 46.4 °F 43.5 °F 41.0 °F 81% 30.21 in 10.0 mi ESE 5.8 mph - N/A   Clear
1:15 AM 44.6 °F 42.2 °F 41.0 °F 87% 30.21 in 10.0 mi ESE 4.6 mph - N/A   Clear
1:35 AM 46.4 °F 45.2 °F 41.0 °F 81% 30.20 in 10.0 mi ESE 3.5 mph - N/A   Clear
1:55 AM 46.4 °F 44.3 °F 41.0 °F 81% 30.19 in 10.0 mi ESE 4.6 mph - N/A   Clear
2:15 AM 46.4 °F - 41.0 °F 81% 30.20 in 10.0 mi Calm Calm - N/A   Clear
2:35 AM 46.4 °F 45.2 °F 41.0 °F 81% 30.20 in 10.0 mi SE 3.5 mph - N/A   Clear
2:55 AM 46.4 °F 45.2 °F 41.0 °F 81% 30.20 in 10.0 mi ESE 3.5 mph - N/A   Clear
3:15 AM 46.4 °F 45.2 °F 42.8 °F 87% 30.19 in 10.0 mi ESE 3.5 mph - N/A   Clear
3:35 AM 46.4 °F 44.3 °F 41.0 °F 81% 30.19 in 10.0 mi ESE 4.6 mph - N/A   Clear
3:55 AM 44.6 °F 42.2 °F 41.0 °F 87% 30.19 in 10.0 mi ESE 4.6 mph - N/A   Clear
4:15 AM 44.6 °F 43.1 °F 41.0 °F 87% 30.21 in 10.0 mi ESE 3.5 mph - N/A   Clear
4:35 AM 44.6 °F - 41.0 °F 87% 30.22 in 10.0 mi Calm Calm - N/A   Clear
4:55 AM 46.4 °F - 41.0 °F 81% 30.24 in 10.0 mi Calm Calm - N/A   Clear
5:15 AM 46.4 °F - 41.0 °F 81% 30.24 in 10.0 mi Calm Calm - N/A   Clear
5:35 AM 44.6 °F 43.1 °F 42.8 °F 93% 30.24 in 10.0 mi SE 3.5 mph - N/A   Clear
5:55 AM 46.4 °F 43.5 °F 42.8 °F 87% 30.23 in 10.0 mi SE 5.8 mph - N/A   Clear
6:15 AM 46.4 °F 42.4 °F 42.8 °F 87% 30.23 in 10.0 mi SE 8.1 mph - N/A   Clear
6:35 AM 48.2 °F - 42.8 °F 82% 30.24 in 10.0 mi SE 9.2 mph - N/A   Clear
6:55 AM 50.0 °F - 42.8 °F 76% 30.25 in 10.0 mi SSE 4.6 mph - N/A   Clear
7:15 AM 50.0 °F - 42.8 °F 76% 30.25 in 10.0 mi SE 10.4 mph - N/A   Clear
7:35 AM 50.0 °F - 42.8 °F 76% 30.27 in 10.0 mi SE 8.1 mph - N/A   Clear
7:55 AM 51.8 °F - 42.8 °F 71% 30.29 in 10.0 mi SSE 6.9 mph - N/A   Clear
8:15 AM 51.8 °F - 44.6 °F 76% 30.29 in 10.0 mi SSE 6.9 mph - N/A   Clear
8:35 AM 51.8 °F - 42.8 °F 71% 30.30 in 10.0 mi SSE 11.5 mph - N/A   Clear
8:55 AM 53.6 °F - 42.8 °F 67% 30.30 in 10.0 mi SSE 11.5 mph - N/A   Clear
9:15 AM 53.6 °F - 42.8 °F 67% 30.29 in 10.0 mi SSE 12.7 mph - N/A   Clear
9:35 AM 53.6 °F - 44.6 °F 72% 30.30 in 10.0 mi SSE 11.5 mph - N/A   Clear
9:55 AM 55.4 °F - 44.6 °F 67% 30.30 in 10.0 mi SSE 9.2 mph - N/A   Clear
10:15 AM 57.2 °F - 44.6 °F 63% 30.29 in 10.0 mi SSE 10.4 mph - N/A   Clear
10:35 AM 59.0 °F - 44.6 °F 59% 30.28 in 10.0 mi SSE 12.7 mph - N/A   Clear
10:55 AM 60.8 °F - 46.4 °F 59% 30.27 in 10.0 mi SE 8.1 mph - N/A   Clear
11:15 AM 60.8 °F - 42.8 °F 52% 30.27 in 10.0 mi South 15.0 mph 19.6 mph N/A   Clear
11:35 AM 62.6 °F - 44.6 °F 52% 30.25 in 10.0 mi South 15.0 mph 21.9 mph N/A   Clear
11:55 AM 64.4 °F - 44.6 °F 49% 30.24 in 10.0 mi SSE 21.9 mph 27.6 mph N/A   Clear
12:15 PM 64.4 °F - 42.8 °F 45% 30.25 in 10.0 mi SSE 17.3 mph 25.3 mph N/A   Clear
12:35 PM 64.4 °F - 42.8 °F 45% 30.23 in 10.0 mi South 17.3 mph 21.9 mph N/A   Clear
12:55 PM 64.4 °F - 42.8 °F 45% 30.22 in 10.0 mi SSE 18.4 mph 21.9 mph N/A   Clear
1:15 PM 64.4 °F - 42.8 °F 45% 30.22 in 10.0 mi South 15.0 mph 24.2 mph N/A   Clear
1:35 PM 64.4 °F - 42.8 °F 45% 30.22 in 10.0 mi South 13.8 mph 19.6 mph N/A   Clear
1:55 PM 64.4 °F - 42.8 °F 45% 30.22 in 10.0 mi South 15.0 mph 19.6 mph N/A   Clear
2:15 PM 64.4 °F - 44.6 °F 49% 30.22 in 10.0 mi South 11.5 mph - N/A   Clear
2:35 PM 64.4 °F - 44.6 °F 49% 30.22 in 10.0 mi South 11.5 mph - N/A   Clear
2:55 PM 62.6 °F - 44.6 °F 52% 30.22 in 10.0 mi SSE 6.9 mph - N/A   Clear
3:15 PM 62.6 °F - 46.4 °F 55% 30.22 in 10.0 mi South 5.8 mph - N/A   Clear
3:35 PM 62.6 °F - 46.4 °F 55% 30.22 in 10.0 mi SSE 4.6 mph - N/A   Clear
3:55 PM 62.6 °F - 50.0 °F 63% 30.23 in 10.0 mi Calm Calm - N/A   Clear
4:15 PM 60.8 °F - 48.2 °F 63% 30.23 in 10.0 mi Calm Calm - N/A   Clear
4:35 PM 62.6 °F - 46.4 °F 55% 30.24 in 10.0 mi Calm Calm - N/A   Clear
4:55 PM 59.0 °F - 50.0 °F 72% 30.24 in 10.0 mi Calm Calm - N/A   Clear
5:15 PM 59.0 °F - 50.0 °F 72% 30.24 in 10.0 mi ESE 3.5 mph - N/A   Clear
5:35 PM 57.2 °F - 48.2 °F 72% 30.23 in 10.0 mi East 4.6 mph - N/A   Clear
5:55 PM 57.2 °F - 48.2 °F 72% 30.24 in 10.0 mi East 3.5 mph - N/A   Clear
6:15 PM 59.0 °F - 48.2 °F 67% 30.24 in 10.0 mi East 4.6 mph - N/A   Clear
6:35 PM 57.2 °F - 50.0 °F 77% 30.25 in 10.0 mi Calm Calm - N/A   Clear
6:55 PM 55.4 °F - 50.0 °F 82% 30.24 in 10.0 mi ENE 3.5 mph - N/A   Clear
7:15 PM 55.4 °F - 50.0 °F 82% 30.23 in 10.0 mi East 6.9 mph - N/A   Clear
7:35 PM 57.2 °F - 48.2 °F 72% 30.23 in 10.0 mi East 6.9 mph - N/A   Clear
7:55 PM 57.2 °F - 48.2 °F 72% 30.25 in 10.0 mi East 4.6 mph - N/A   Clear
8:15 PM 55.4 °F - 48.2 °F 77% 30.26 in 10.0 mi East 3.5 mph - N/A   Clear
8:35 PM 55.4 °F - 48.2 °F 77% 30.26 in 10.0 mi ESE 4.6 mph - N/A   Clear
8:55 PM 55.4 °F - 48.2 °F 77% 30.25 in 10.0 mi ESE 8.1 mph - N/A   Clear
9:15 PM 55.4 °F - 50.0 °F 82% 30.26 in 10.0 mi ESE 5.8 mph - N/A   Clear
9:35 PM 55.4 °F - 48.2 °F 77% 30.26 in 10.0 mi ESE 5.8 mph - N/A   Scattered Clouds
9:55 PM 55.4 °F - 50.0 °F 82% 30.27 in 10.0 mi Calm Calm - N/A   Mostly Cloudy
10:15 PM 55.4 °F - 50.0 °F 82% 30.28 in 10.0 mi Calm Calm - N/A   Overcast
10:35 PM 55.4 °F - 50.0 °F 82% 30.28 in 10.0 mi ESE 3.5 mph - N/A   Overcast
10:55 PM 53.6 °F - 50.0 °F 88% 30.28 in 10.0 mi ESE 8.1 mph - N/A   Scattered Clouds
11:15 PM 53.6 °F - 50.0 °F 88% 30.27 in 10.0 mi ESE 6.9 mph - N/A   Clear
11:35 PM 55.4 °F - 48.2 °F 77% 30.26 in 10.0 mi ESE 5.8 mph - N/A   Clear
11:55 PM 53.6 °F - 46.4 °F 77% 30.26 in 10.0 mi ESE 5.8 mph - N/A   Clear